Seward, AK

11:53 PM AKDT on May 20, 2018 (GMT -0800)
Seward

Weather History for PAWD - September, 2012

Change the Weather History Date:

Saturday, September 15, 2012

  Actual Average Record
Temperature  
Mean Temperature 49 °F -  
Max Temperature 52 °F 55 °F 68 °F (1958)
Min Temperature 46 °F 43 °F 35 °F (1987)
Degree Days  
Heating Degree Days 16    
Moisture  
Dew Point 48 °F    
Average Humidity 91    
Maximum Humidity 100    
Minimum Humidity 80    
Precipitation  
Precipitation 2.10 in - - ()
Sea Level Pressure  
Sea Level Pressure 29.85 in    
Wind  
Wind Speed 7 mph (South)    
Max Wind Speed 22 mph    
Max Gust Speed 33 mph    
Visibility 5 miles    
Events Rain    
Averages and records for this station are not official NWS values.
T = Trace of Precipitation, MM = Missing Value Source: NWS Daily Summary

Daily Weather History Graph

Daily Weather History Graph

Search for Another Location

Airport or City:

Astronomy

Sep. 15, 2012 Rise Set
Actual Time 7:27 AM AKDT 8:16 PM AKDT
Civil Twilight 6:44 AM AKDT 8:58 PM AKDT
Nautical Twilight 5:52 AM AKDT 9:50 PM AKDT
Astronomical Twilight 4:53 AM AKDT 10:48 PM AKDT
Moon 7:18 AM AKDT (9/15) 7:34 PM AKDT (9/15)
Length of Visible Light 14h 14m
Length of Day
12h 49m
Waning Crescent, 0% of the Moon is Illuminated
Sep 15
Waning Crescent
Sep 15
New
Sep 22
First Quarter
Sep 29
Full
Oct 7
Last Quarter

Hourly Weather History & Observations

Time (AKDT) Temp. Dew Point Humidity Pressure Visibility Wind Dir Wind Speed Gust Speed Precip Events Conditions
12:05 AM 48.2 °F 46.4 °F 93% 29.85 in 2.0 mi Calm Calm - 0.01 in Rain Light Rain
12:19 AM 46.4 °F 46.4 °F 100% 29.85 in 1.8 mi Calm Calm - 0.04 in Rain Light Rain
12:28 AM 46.4 °F 46.4 °F 100% 29.85 in 3.0 mi Calm Calm - 0.04 in Rain Light Rain
12:40 AM 48.2 °F 46.4 °F 93% 29.85 in 5.0 mi Calm Calm - 0.05 in Rain Light Rain
12:53 AM 48.0 °F 46.9 °F 96% 29.86 in 5.0 mi Calm Calm - 0.05 in Rain Light Rain
1:18 AM 48.2 °F 46.4 °F 93% 29.86 in 8.0 mi Calm Calm - 0.01 in Rain Light Rain
1:34 AM 51.8 °F 48.2 °F 88% 29.85 in 10.0 mi South 8.1 mph - 0.01 in   Overcast
1:53 AM 51.1 °F 48.9 °F 92% 29.85 in 10.0 mi South 11.5 mph - 0.01 in   Overcast
2:03 AM 51.8 °F 48.2 °F 88% 29.85 in 10.0 mi South 15.0 mph - 0.00 in Rain Light Rain
2:53 AM 52.0 °F 50.0 °F 93% 29.85 in 7.0 mi SSW 15.0 mph 21.9 mph 0.00 in Rain Light Rain
3:21 AM 51.8 °F 48.2 °F 88% 29.84 in 10.0 mi SSE 6.9 mph - 0.01 in   Overcast
3:53 AM 51.1 °F 48.9 °F 92% 29.83 in 10.0 mi SE 5.8 mph - 0.01 in Rain Light Rain
4:53 AM 51.1 °F 50.0 °F 96% 29.83 in 5.0 mi SSE 6.9 mph - 0.13 in Rain Rain
5:16 AM 51.8 °F 50.0 °F 94% 29.83 in 5.0 mi South 4.6 mph - 0.06 in Rain Rain
5:20 AM 51.8 °F 50.0 °F 94% 29.83 in 5.0 mi South 4.6 mph - 0.06 in Rain Rain
5:53 AM 52.0 °F 50.0 °F 93% 29.83 in 5.0 mi South 6.9 mph - 0.12 in Rain Light Rain
6:53 AM 52.0 °F 50.0 °F 93% 29.83 in 9.0 mi South 10.4 mph 16.1 mph 0.04 in Rain Light Rain
7:08 AM 51.8 °F 50.0 °F 94% 29.82 in 6.0 mi South 4.6 mph - 0.01 in Rain Light Rain
7:33 AM 51.8 °F 50.0 °F 94% 29.82 in 6.0 mi South 8.1 mph 17.3 mph 0.03 in Rain Light Rain
7:53 AM 52.0 °F 50.0 °F 93% 29.83 in 9.0 mi South 8.1 mph 17.3 mph 0.04 in Rain Light Rain
8:53 AM 52.0 °F 50.0 °F 93% 29.85 in 9.0 mi South 8.1 mph 21.9 mph 0.03 in Rain Light Rain
9:53 AM 52.0 °F 50.0 °F 93% 29.87 in 10.0 mi South 6.9 mph 19.6 mph 0.03 in Rain Light Rain
10:53 AM 51.1 °F 48.9 °F 92% 29.89 in 6.0 mi South 13.8 mph 24.2 mph 0.05 in Rain Light Rain
11:53 AM 51.1 °F 50.0 °F 96% 29.90 in 3.0 mi SSW 17.3 mph - 0.03 in Rain Light Rain
12:53 PM 51.1 °F 50.0 °F 96% 29.90 in 4.0 mi SSW 17.3 mph - 0.04 in Rain Light Rain
1:53 PM 52.0 °F 50.0 °F 93% 29.90 in 6.0 mi SSW 16.1 mph 25.3 mph 0.06 in Rain Light Rain
2:53 PM 52.0 °F 48.9 °F 89% 29.89 in 4.0 mi South 20.7 mph 28.8 mph 0.09 in Rain Light Rain
3:32 PM 51.8 °F 48.2 °F 88% 29.89 in 2.5 mi South 13.8 mph 31.1 mph 0.10 in Rain Rain
3:53 PM 52.0 °F 48.9 °F 89% 29.89 in 2.0 mi South 17.3 mph 28.8 mph 0.17 in Rain Rain
4:06 PM 51.8 °F 48.2 °F 88% 29.89 in 4.0 mi South 16.1 mph 26.5 mph 0.02 in Rain Light Rain
4:37 PM 51.8 °F 48.2 °F 88% 29.89 in 2.0 mi South 12.7 mph 25.3 mph 0.10 in Rain Rain
4:53 PM 51.1 °F 48.0 °F 89% 29.88 in 3.0 mi South 21.9 mph 33.4 mph 0.14 in Rain Rain
5:53 PM 50.0 °F 46.0 °F 86% 29.87 in 3.0 mi South 18.4 mph 26.5 mph 0.11 in Rain Rain
6:53 PM 48.9 °F 45.0 °F 86% 29.84 in 3.0 mi SSE 9.2 mph - 0.14 in Rain Rain
7:17 PM 50.0 °F 46.4 °F 87% 29.82 in 2.5 mi SSE 15.0 mph 32.2 mph 0.06 in Rain Rain
7:46 PM 50.0 °F 46.4 °F 87% 29.81 in 3.0 mi South 11.5 mph 25.3 mph 0.14 in Rain Rain
7:53 PM 50.0 °F 46.9 °F 89% 29.81 in 3.0 mi South 18.4 mph 25.3 mph 0.16 in Rain Rain
8:53 PM 48.0 °F 45.0 °F 89% 29.81 in 4.0 mi SSW 20.7 mph 32.2 mph 0.20 in Rain Rain
9:53 PM 50.0 °F 44.1 °F 80% 29.79 in 6.0 mi South 10.4 mph 20.7 mph 0.10 in Rain Light Rain
10:53 PM 48.0 °F 46.0 °F 93% 29.75 in 4.0 mi Calm Calm - 0.12 in Rain Rain
11:53 PM 46.9 °F 45.0 °F 93% 29.74 in 3.0 mi NNE 5.8 mph - 0.23 in Rain Heavy Rain